[[{"header":{"parameterUnit":"m.s-1","parameterCategory":1,"la1":30.2991,"la2":30.254,"lo1":-89.0895,"lo2":-89.0444,"dx":0.0017,"dy":0.0017,"nx":28,"ny":28,"refTime":"2022-11-28T15:00:00:Z","depth":0,"parameterNumber":2,"parameterNumberName":"U-component_of_WINDS"},"data":[0,0,0,0,0,0,0,0,0,0,0,0,0,0,0,0,0,0,0,0,0,0,0,0,0,0,0,0,0,0,0,0,0,0,0,0,0,0,0,0,0,0,0,0,0,0,0,0,0,0,0,0,0,0,0,0,0,0,-2.6086,-2.6086,0,-2.6139,-2.614,-2.614,-2.6144,-2.6143,-2.6142,-2.6142,-2.6193,-2.6195,-2.6197,0,0,0,0,0,0,0,0,0,0,0,0,0,-2.5984,-2.5986,-2.6086,-2.6086,-2.6087,-2.6139,-2.614,-2.614,-2.6144,-2.6143,-2.6142,-2.6142,-2.6193,-2.6195,-2.6197,0,0,0,0,0,0,0,0,0,0,0,0,0,-2.6032,-2.5987,-2.6086,-2.6095,-2.6097,-2.6139,-2.614,-2.6141,-2.6144,-2.6143,-2.6142,-2.6141,-2.6192,-2.6195,-2.6197,-2.6233,0,0,-2.6206,-2.6207,0,0,0,0,0,0,0,0,-2.6029,-2.6036,-2.6093,-2.6095,-2.6096,-2.6134,-2.6123,-2.6171,-2.6144,-2.6126,-2.6142,-2.6141,-2.6174,-2.6178,-2.619,-2.6235,-2.6237,-2.6206,-2.6208,-2.6209,-2.621,0,0,0,0,0,0,0,-2.6026,-2.6033,-2.6107,-2.6094,-2.6096,-2.6096,-2.6102,-2.6132,-2.6154,-2.6127,-2.6128,-2.6134,-2.6175,-2.6187,-2.6191,-2.6238,-2.6206,-2.6209,-2.6211,-2.6212,-2.6315,-2.6316,0,0,0,0,0,0,-2.6021,-2.6031,-2.6105,-2.6108,-2.606,-2.6098,-2.6105,-2.6123,-2.6154,-2.6158,-2.6135,-2.6134,-2.6183,-2.6188,-2.6193,-2.6236,-2.6209,-2.6212,-2.6214,-2.6314,-2.6315,-2.6316,0,0,0,0,0,0,-2.6019,-2.6028,-2.6103,-2.607,-2.6079,-2.6101,-2.6121,-2.6124,-2.6137,-2.616,-2.6163,-2.6144,-2.6182,-2.6189,-2.6223,-2.6238,-2.6213,-2.6216,-2.6312,-2.6314,-2.6315,-2.6322,0,0,0,0,0,0,-2.6016,-2.6027,-2.6041,-2.607,-2.6081,-2.6133,-2.6122,-2.6126,-2.6142,-2.6142,-2.6169,-2.6173,-2.6182,-2.6219,-2.6226,-2.6241,-2.6218,-2.6311,-2.6313,-2.6315,-2.6321,-2.6324,-2.6327,0,0,0,0,0,-2.6013,-2.6041,-2.6042,-2.6051,-2.6099,-2.6134,-2.614,-2.6151,-2.6143,-2.6157,-2.6172,-2.6172,-2.6235,-2.6222,-2.623,-2.6247,-2.631,-2.6313,-2.6315,-2.632,-2.6323,-2.6326,0,0,0,0,0,0,-2.6012,-2.6045,-2.6046,-2.6085,-2.6107,-2.6134,-2.6152,-2.6155,-2.6178,-2.6177,-2.6189,-2.6195,-2.6228,-2.6241,-2.6226,-2.6282,-2.6272,-2.6276,-2.6273,-2.6276,-2.6279,-2.6275,-2.6221,0,0,0,0,0,-2.6016,-2.6042,-2.6069,-2.61,-2.6111,-2.613,-2.6145,-2.6152,-2.6175,-2.6184,-2.6201,-2.6222,-2.6247,-2.6262,-2.6286,-2.6323,-2.6329,-2.6339,-2.6341,-2.6344,-2.6346,-2.6366,-2.637,-2.6323,-2.6323,-2.6323,0,0,-2.6025,-2.6047,-2.6062,-2.6101,-2.6118,-2.6144,-2.6138,-2.6165,-2.6184,-2.6187,-2.6221,-2.6234,-2.6258,-2.6294,-2.631,-2.6305,-2.6361,-2.6347,-2.6348,-2.635,-2.6369,-2.6373,-2.6377,-2.6325,-2.6325,-2.6324,0,0,-2.6055,-2.6074,-2.6102,-2.612,-2.6147,-2.616,-2.6167,-2.6194,-2.6203,-2.6237,-2.6241,-2.6263,-2.6305,-2.6322,-2.6337,-2.6374,-2.6374,-2.6381,-2.6395,-2.6414,-2.6418,-2.6421,-2.6433,-2.6437,-2.6384,-2.6384,-2.6384,0,-2.6062,-2.6102,-2.6116,-2.6143,-2.616,-2.6166,-2.6194,-2.621,-2.6243,-2.6254,-2.6249,-2.6303,-2.6319,-2.6359,-2.6368,-2.6379,-2.6386,-2.6377,-2.6416,-2.642,-2.6423,-2.6435,-2.6439,-2.6385,-2.6385,-2.6385,-2.6384,0,-2.6109,-2.6137,-2.6156,-2.6189,-2.6208,-2.6236,-2.6252,-2.627,-2.6276,-2.6288,-2.6322,-2.6343,-2.6371,-2.6381,-2.6387,-2.6421,-2.6417,-2.6414,-2.6403,-2.6428,-2.6439,-2.6444,-2.6386,-2.6385,-2.6385,-2.6385,0,0,-2.6138,-2.618,-2.6186,-2.6201,-2.6232,-2.6253,-2.6281,-2.631,-2.6324,-2.6347,-2.6369,-2.6406,-2.6403,-2.6419,-2.6427,-2.6444,-2.6471,-2.6439,-2.6439,-2.6443,-2.6509,-2.651,-2.6515,-2.6472,-2.6473,-2.6473,-2.6506,0,-2.617,-2.6221,-2.6234,-2.6276,-2.6301,-2.6308,-2.6332,-2.6353,-2.6365,-2.6388,-2.6402,-2.6427,-2.6422,-2.6432,-2.6449,-2.6464,-2.6484,-2.6462,-2.6491,-2.6492,-2.6484,-2.6521,-2.6522,-2.6552,-2.6511,-2.6512,-2.6512,0,-2.6214,-2.6239,-2.6284,-2.6312,-2.6323,-2.6344,-2.6371,-2.6393,-2.6417,-2.6425,-2.6444,-2.645,-2.6478,-2.6467,-2.6505,-2.649,-2.6503,-2.6512,-2.6514,-2.6516,-2.6503,-2.6522,-2.6562,-2.6566,-2.6519,-2.6519,-2.6518,0,-2.6229,-2.6274,-2.6307,-2.632,-2.6353,-2.6368,-2.6382,-2.6406,-2.6422,-2.6446,-2.6456,-2.6483,-2.6497,-2.6517,-2.6529,-2.652,-2.6566,-2.6556,-2.6572,-2.6572,-2.658,-2.6579,-2.6621,-2.6591,-2.6591,-2.6591,-2.6591,0,-2.6263,-2.629,-2.6314,-2.6334,-2.6364,-2.6379,-2.6408,-2.6423,-2.6444,-2.6466,-2.6473,-2.6493,-2.651,-2.6532,-2.6542,-2.6572,-2.6578,-2.6585,-2.6587,-2.6583,-2.6582,-2.6591,-2.6588,-2.6592,-2.6592,-2.6592,-2.6592,0,-2.6284,-2.6302,-2.6338,-2.6367,-2.6375,-2.6396,-2.642,-2.6439,-2.6453,-2.6481,-2.6488,-2.6509,-2.6536,-2.6551,-2.6584,-2.6591,-2.6624,-2.6625,-2.6616,-2.6616,-2.6631,-2.6629,-2.6679,-2.6685,-2.6652,-2.6652,-2.6653,0,-2.6304,-2.6325,-2.6357,-2.6372,-2.6387,-2.6413,-2.643,-2.6446,-2.6463,-2.6492,-2.6507,-2.6535,-2.6558,-2.66,-2.6617,-2.6643,-2.6644,-2.666,-2.6648,-2.6644,-2.6643,-2.6641,-2.6643,-2.6661,-2.6662,-2.6662,-2.6662,0,-2.6336,-2.6344,-2.6369,-2.6397,-2.6417,-2.644,-2.6462,-2.6475,-2.6494,-2.6513,-2.6541,-2.6558,-2.6593,-2.662,-2.6647,-2.6661,-2.6664,-2.6666,-2.6671,-2.6667,-2.666,-2.6662,-2.662,-2.6664,-2.6664,-2.6664,-2.6664,-2.6664,-2.6356,-2.6375,-2.6401,-2.6428,-2.6447,-2.6468,-2.6487,-2.6503,-2.6527,-2.6557,-2.6565,-2.6594,-2.6617,-2.6654,-2.6669,-2.6691,-2.6688,-2.6696,-2.6697,-2.6698,-2.6698,-2.6658,-2.6697,-2.6696,-2.6696,-2.6696,-2.6696,0,-2.6388,-2.6405,-2.643,-2.6462,-2.6483,-2.6486,-2.6511,-2.6529,-2.6555,-2.6576,-2.6599,-2.6631,-2.6657,-2.6677,-2.6704,-2.6718,-2.672,-2.6724,-2.6722,-2.6725,-2.67,-2.6693,-2.6722,-2.6722,-2.6722,-2.6722,-2.6722,-2.6722,-2.6407,-2.6439,-2.645,-2.6491,-2.6507,-2.6537,-2.6551,-2.657,-2.6587,-2.6623,-2.6645,-2.6658,-2.6679,-2.6708,-2.6731,-2.6736,-2.6745,-2.6749,-2.6754,-2.673,-2.6727,-2.6724,-2.6717,-2.6751,-2.6751,-2.6777,-2.6777,-2.6778]},{"header":{"parameterUnit":"m.s-1","parameterCategory":1,"la1":30.2991,"la2":30.254,"lo1":-89.0895,"lo2":-89.0444,"dx":0.0017,"dy":0.0017,"nx":28,"ny":28,"refTime":"2022-11-28T15:00:00:Z","depth":0,"parameterNumber":3,"parameterNumberName":"V-component_of_WINDS"},"data":[0,0,0,0,0,0,0,0,0,0,0,0,0,0,0,0,0,0,0,0,0,0,0,0,0,0,0,0,0,0,0,0,0,0,0,0,0,0,0,0,0,0,0,0,0,0,0,0,0,0,0,0,0,0,0,0,0,0,5.0563,5.0564,0,5.0647,5.0647,5.0648,5.0633,5.0632,5.063,5.0629,5.0709,5.0712,5.0716,0,0,0,0,0,0,0,0,0,0,0,0,0,5.0386,5.0389,5.0563,5.0564,5.0565,5.0646,5.0648,5.0649,5.0634,5.0632,5.063,5.0628,5.0708,5.0712,5.0716,0,0,0,0,0,0,0,0,0,0,0,0,0,5.0465,5.039,5.0563,5.0568,5.0569,5.0646,5.0648,5.0649,5.0634,5.0632,5.063,5.0628,5.0706,5.0711,5.0716,5.0793,0,0,5.0732,5.0735,0,0,0,0,0,0,0,0,5.0461,5.0472,5.0566,5.0567,5.0569,5.0627,5.0614,5.0697,5.0635,5.0609,5.0629,5.0626,5.0683,5.069,5.071,5.0796,5.08,5.0733,5.0736,5.0738,5.074,0,0,0,0,0,0,0,5.0455,5.0468,5.0596,5.0567,5.0569,5.0564,5.0573,5.063,5.0657,5.0611,5.061,5.0621,5.0683,5.0705,5.0712,5.0801,5.0733,5.0737,5.0741,5.0743,5.0956,5.0958,0,0,0,0,0,0,5.0449,5.0464,5.0593,5.0598,5.0509,5.0569,5.0579,5.0611,5.0656,5.0661,5.0622,5.062,5.0697,5.0706,5.0715,5.0809,5.0738,5.0743,5.0746,5.0953,5.0956,5.0959,0,0,0,0,0,0,5.0445,5.0461,5.059,5.0531,5.0547,5.0574,5.061,5.0614,5.0636,5.0665,5.0669,5.064,5.0696,5.0707,5.0774,5.0812,5.0745,5.075,5.095,5.0954,5.0958,5.0997,0,0,0,0,0,0,5.044,5.046,5.049,5.0532,5.055,5.0649,5.0612,5.0617,5.0645,5.0642,5.0683,5.0687,5.0695,5.0767,5.078,5.0818,5.0754,5.0947,5.0952,5.0956,5.0993,5.1002,5.101,0,0,0,0,0,5.0434,5.0496,5.0491,5.0507,5.0589,5.0652,5.0662,5.0671,5.0648,5.0679,5.0698,5.0686,5.0805,5.0774,5.0788,5.0828,5.0945,5.0951,5.0956,5.0989,5.1,5.101,0,0,0,0,0,0,5.0455,5.0501,5.0497,5.0574,5.061,5.0649,5.0687,5.0682,5.0723,5.0719,5.0727,5.0736,5.0805,5.0822,5.0786,5.0905,5.0872,5.088,5.0892,5.0903,5.0911,5.0906,5.0759,0,0,0,0,0,5.0469,5.0518,5.0555,5.0619,5.0637,5.0659,5.0687,5.0692,5.0727,5.0742,5.0766,5.0799,5.0845,5.0874,5.0917,5.0995,5.1004,5.103,5.1038,5.1045,5.1053,5.1098,5.111,5.0978,5.0978,5.0978,0,0,5.0497,5.0529,5.0558,5.0624,5.0652,5.0702,5.0672,5.0725,5.0762,5.0749,5.0815,5.0834,5.0872,5.0945,5.0979,5.0963,5.1091,5.1052,5.1057,5.1062,5.1105,5.1117,5.1128,5.0982,5.0981,5.098,0,0,5.0575,5.0603,5.0662,5.0691,5.0735,5.0749,5.0763,5.0804,5.0817,5.0884,5.0876,5.0919,5.0996,5.1025,5.1049,5.114,5.1131,5.1153,5.1198,5.1242,5.1252,5.1262,5.1296,5.1308,5.1161,5.1161,5.1161,0,5.0605,5.0681,5.0692,5.0747,5.0777,5.077,5.0829,5.0856,5.091,5.093,5.0911,5.101,5.1035,5.1117,5.1139,5.1158,5.1175,5.1149,5.125,5.126,5.1268,5.1301,5.1314,5.1163,5.1163,5.1163,5.1163,0,5.0716,5.0769,5.0811,5.0868,5.0901,5.0958,5.0976,5.1009,5.101,5.1027,5.1095,5.1125,5.1176,5.1195,5.1195,5.1277,5.1266,5.1248,5.1215,5.1284,5.1315,5.1327,5.1167,5.1166,5.1165,5.1165,0,0,5.081,5.0873,5.0888,5.0915,5.0963,5.1004,5.106,5.1112,5.1141,5.1178,5.1226,5.1292,5.1278,5.1306,5.1309,5.1347,5.142,5.1326,5.1327,5.1344,5.1514,5.1528,5.1543,5.1414,5.1417,5.1418,5.1511,0,5.0894,5.0997,5.1009,5.11,5.115,5.1144,5.1193,5.1228,5.1245,5.1288,5.1305,5.1354,5.1329,5.1347,5.1384,5.1404,5.1455,5.1397,5.1459,5.1461,5.1452,5.1559,5.1574,5.166,5.1523,5.1525,5.1527,0,5.1007,5.1052,5.1148,5.1192,5.1214,5.1258,5.1308,5.1349,5.1388,5.1397,5.143,5.1429,5.1487,5.145,5.153,5.149,5.1516,5.1529,5.1533,5.1541,5.15,5.1571,5.1687,5.1701,5.1546,5.1544,5.1543,0,5.1069,5.1152,5.1222,5.1244,5.1296,5.1328,5.1351,5.1388,5.1419,5.1461,5.1481,5.1528,5.1555,5.1591,5.1603,5.1575,5.1683,5.1646,5.1693,5.1693,5.1717,5.1716,5.1841,5.173,5.173,5.173,5.1729,0,5.1163,5.1223,5.1251,5.1294,5.1361,5.1373,5.1439,5.146,5.1493,5.1539,5.1535,5.1578,5.1591,5.1636,5.1645,5.1711,5.1722,5.1731,5.1734,5.1733,5.1733,5.1752,5.1747,5.1733,5.1732,5.1732,5.1731,0,5.1244,5.1265,5.1341,5.1385,5.1398,5.1446,5.1483,5.1524,5.154,5.1599,5.1613,5.1638,5.1692,5.1707,5.1769,5.1776,5.1854,5.1849,5.1842,5.1843,5.1889,5.1886,5.2033,5.2054,5.1927,5.1928,5.1929,0,5.1305,5.1351,5.1402,5.1434,5.1459,5.151,5.1543,5.1556,5.159,5.1639,5.1674,5.1727,5.1771,5.1855,5.1879,5.1927,5.1925,5.1973,5.1932,5.1931,5.1928,5.1927,5.1932,5.1981,5.1983,5.1984,5.1985,0,5.141,5.1419,5.1467,5.1521,5.156,5.1602,5.1641,5.1667,5.1686,5.1724,5.178,5.1814,5.188,5.1933,5.1982,5.2004,5.1998,5.1998,5.2011,5.2013,5.2008,5.2014,5.1866,5.1994,5.1993,5.1993,5.1992,5.1992,5.1485,5.1527,5.157,5.1625,5.1656,5.1694,5.1736,5.1759,5.1807,5.1864,5.1867,5.1928,5.1967,5.2033,5.2057,5.2104,5.209,5.2109,5.2115,5.212,5.2125,5.1999,5.2113,5.2113,5.2112,5.2112,5.2112,0,5.1592,5.162,5.167,5.1728,5.1771,5.1764,5.1807,5.1844,5.1898,5.1935,5.1979,5.2044,5.2096,5.2124,5.2175,5.2208,5.2206,5.2221,5.222,5.2225,5.2134,5.2118,5.2221,5.2221,5.2221,5.2221,5.2221,5.2221,5.1654,5.1726,5.174,5.1828,5.1855,5.1917,5.1943,5.1978,5.2008,5.2082,5.2126,5.2144,5.2178,5.2232,5.2279,5.2286,5.2306,5.2323,5.2328,5.2242,5.2231,5.2221,5.2206,5.2326,5.2326,5.2416,5.2417,5.2417]}]]